Flag for Australia Weather past 2 weeks in Cairns, Queensland, Australia

Now
72 °F

Passing clouds.


Feels Like: 74 °F
Forecast: 66 / 84 °F
Wind: 7 mph from Southeast

Location: Cairns Airport

Current Time: Oct 1, 2014 at 8:41:58 PM

Latest Report: Oct 1, 2014 at 8:00 PM


Visibility: N/A

Pressure: 30.01 "Hg

Humidity: 73%

Dew point: 63 °F

Location of CairnsLocation

Historic Weather in Cairns — Graph

°F

Cairns temperature yesterday

Maximum temperature yesterday: 82 °F (at 11:00 AM)
Minimum temperature yesterday: 68 °F (at 4:00 AM)
Average temperature yesterday: 75 °F

Past Weeks' High & Low Weather Summary

 TemperatureHumidityPressure
High86 °F (Sep 17, 1:30 PM)100% (Sep 19, 12:30 AM)30.09 "Hg (Sep 19, 12:30 AM)
Low55 °F (Sep 18, 3:30 AM)13% (Sep 17, 2:30 PM)29.92 "Hg (Sep 20, 2:00 PM)
Average74 °F67%30.01 "Hg
* Reported Sep 16 7:00 PM — Oct 1 7:30 PM, Cairns, Weather by CustomWeather, © 2014

Note: Actual official high and low records may vary slightly from our data, if they occured in-between our weather recording intervals... More about our weather records

Advertising

Cairns weather history for previous 24 hours

 ConditionsComfort  
Time TempWeatherWind HumidityBarometerVisibility
7:30 PM
Oct 1
73 °FPassing clouds.9 mph65%29.98 "HgN/A
7:00 PM73 °FPassing clouds.12 mph69%29.98 "HgN/A
6:30 PM73 °FPassing clouds.14 mph69%29.98 "HgN/A
6:00 PM75 °FPassing clouds.16 mph61%29.98 "HgN/A
5:30 PM75 °FPassing clouds.17 mph61%29.95 "HgN/A
5:00 PM77 °FPassing clouds.16 mph54%29.95 "HgN/A
4:30 PM77 °FPassing clouds.17 mph54%29.95 "HgN/A
4:00 PM79 °FPassing clouds.20 mph51%29.95 "HgN/A
3:30 PM81 °FPassing clouds.17 mph51%29.95 "HgN/A
3:00 PM82 °FPassing clouds.17 mph48%29.95 "HgN/A
2:30 PM81 °FPassing clouds.16 mph51%29.95 "HgN/A
2:00 PM81 °FPassing clouds.18 mph54%29.95 "HgN/A
1:30 PM82 °FPassing clouds.18 mph42%29.95 "HgN/A
1:00 PM82 °FPassing clouds.20 mph40%29.98 "HgN/A
12:00 PM84 °FScattered clouds.14 mph35%30.01 "HgN/A
11:30 AM81 °FPartly sunny.14 mph39%30.04 "HgN/A
11:00 AM81 °FPartly sunny.15 mph37%30.04 "HgN/A
10:30 AM81 °FPartly sunny.15 mph37%30.07 "HgN/A
10:00 AM79 °FPartly sunny.13 mph39%30.07 "HgN/A
9:30 AM77 °FPartly sunny.10 mph47%30.07 "HgN/A
9:00 AM75 °FPartly sunny.10 mph54%30.07 "HgN/A
8:30 AM75 °FPartly sunny.12 mph54%30.07 "HgN/A
8:00 AM72 °FPartly sunny.9 mph61%30.07 "HgN/A
7:30 AM72 °FPartly sunny.8 mph61%30.04 "HgN/A
7:00 AM70 °FPartly sunny.10 mph64%30.04 "HgN/A
6:30 AM68 °FPartly sunny.13 mph73%30.04 "HgN/A
6:00 AM68 °FPartly sunny.13 mph73%30.01 "HgN/A
5:30 AM68 °FPassing clouds.10 mph73%30.01 "HgN/A
5:00 AM72 °FPassing clouds.10 mph61%30.01 "HgN/A
4:30 AM70 °FPassing clouds.10 mph69%30.01 "HgN/A
4:00 AM68 °FPassing clouds.10 mph73%29.98 "HgN/A
3:30 AM68 °FPassing clouds.8 mph78%29.98 "HgN/A
3:00 AM66 °FPassing clouds.12 mph78%29.98 "HgN/A
2:00 AM68 °FOvercast.10 mph73%30.01 "HgN/A
1:30 AM70 °FPassing clouds.9 mph73%30.01 "HgN/A
1:00 AM68 °FPassing clouds.7 mph73%30.04 "HgN/A
12:30 AM68 °FPassing clouds.9 mph73%30.04 "HgN/A
12:00 AM68 °FPassing clouds.8 mph73%30.04 "HgN/A
11:30 PM
Sep 30
72 °FPassing clouds.8 mph65%30.04 "HgN/A
11:00 PM72 °FClear.8 mph65%30.07 "HgN/A
10:30 PM72 °FPassing clouds.8 mph65%30.07 "HgN/A
10:00 PM72 °FPassing clouds.5 mph65%30.07 "HgN/A
9:30 PM72 °FPassing clouds.6 mph61%30.07 "HgN/A
9:00 PM72 °FPassing clouds.5 mph61%30.07 "HgN/A
8:30 PM72 °FPassing clouds.7 mph61%30.04 "HgN/A
8:00 PM72 °FPassing clouds.8 mph65%30.04 "HgN/A
Weather by CustomWeather, © 2014

See weather overviewHow to use our weather pages